Regional Weather Roundup
Issued by NWS

Home | Current Version | Previous Version | Text Only | Print | Product List | Glossary Off
Versions: 1 2 3 4 5 6 7 8 9 10 11 12 13 14 15 16 17 18 19 20 21 22 23 24 25 26 27 28 29 30 31 32 33 34 35 36 37 38 39 40 41 42 43 44 45 46 47 48 49 50

000
ASUS43 KMPX 301301
RWRMN
WEATHER ROUNDUP FOR MINNESOTA
NATIONAL WEATHER SERVICE TWIN CITIES/CHANHASSEN MN
800 AM CDT SAT JUL 30 2016


NOTE: "FAIR" INDICATES FEW OR NO CLOUDS BELOW 12,000 FEET WITH NO
SIGNIFICANT WEATHER AND/OR OBSTRUCTIONS TO VISIBILITY. N/A MEANS
CURRENT SKY AND/OR WEATHER CONDITIONS ARE NOT AVAILABLE.

MNZ060>063-068>070-301400-
   Twin Cities Metro

CITY           SKY/WX    TMP DP  RH WIND       PRES   REMARKS
TWIN CITIES    CLOUDY    69  61  75 SE5       30.04S
ST PAUL        CLOUDY    67  62  84 E5        30.04S
CRYSTAL        CLOUDY    65  59  81 CALM      30.03S
BLAINE         PTSUNNY   66  64  94 CALM      30.04
LAKEVILLE      CLOUDY    64  64 100 CALM      30.04R
EDEN PRAIRIE   MOSUNNY   67  60  78 CALM      30.03S
LAKEVILLE      CLOUDY    64  64 100 CALM      30.04R
SOUTH ST PAUL  CLOUDY    67  61  81 CALM      30.04R
LAKE ELMO      CLOUDY    66  63  88 CALM      30.06R
$$
MNZ001>005-007-008-013>017-022>024-027-028-301400-
   Northwest Minnesota

CITY           SKY/WX    TMP DP  RH WIND       PRES   REMARKS
BEMIDJI        PTSUNNY   63  58  83 SE3       30.03F
HALLOCK        CLOUDY    66  63  88 S8        29.96R
ROSEAU         SUNNY     63  57  82 S6        29.99R
WARROAD        SUNNY     61  57  88 S2        29.99S
THIEF RVR FALL CLOUDY    64  62  93 S6        30.00S
CROOKSTON      LGT RAIN  64  63  94 SE6       29.99S
FOSSTON        LGT RAIN  63  61  94 S6        30.03S
DETROIT LAKES  CLOUDY    66  61  82 SE5       30.03S
MOORHEAD       SUNNY     66  61  82 SE8       29.99S
PARK RAPIDS    CLOUDY    63  56  78 SE10      30.04S
MAHNOMEN       CLOUDY    65  62  89 CALM      30.02R
$$
MNZ006-009>011-018-025>026-301400-
   North Central Minnesota

CITY           SKY/WX    TMP DP  RH WIND       PRES   REMARKS
BAUDETTE       SUNNY     64  60  87 S5        30.01S
FLAG ISLAND    SUNNY     70  63  78 SW3       29.98S
INTL FALLS     MOSUNNY   61  54  77 VRB3      30.05R
WASKISH        SUNNY     64  59  82 S5        30.02S HAZE
BIG FORK       SUNNY     61  55  82 S3        30.05F
LONGVILLE      MOSUNNY   61  57  88 CALM      30.05S
GRAND RAPIDS   MOSUNNY   58  55  90 S3        30.09R
CRANE LAKE     PTSUNNY   54  54 100 S1        30.08S
ORR            MOSUNNY   57  52  82 CALM      30.05S
COOK           MOSUNNY   55  52  88 CALM      30.08S
WALKER         FAIR      63  57  80 S5        30.05R
$$
MNZ012-019>021-037-301400-
   Northeast Minnesota

CITY           SKY/WX    TMP DP  RH WIND       PRES   REMARKS
DULUTH         CLOUDY    61  57  87 E6        30.08R
ELY            CLOUDY    57  54  88 CALM      30.08S
HIBBING        MOSUNNY   55  52  89 CALM      30.07S
EVELETH        CLOUDY    58  56  95 CALM      30.09S
DULUTH HARBOR  MOSUNNY   61  59  94 CALM      30.08R
TWO HARBORS    CLOUDY    64  57  77 CALM      30.06S
SILVER BAY     SUNNY     61  57  88 CALM      30.06S
G MARAIS ARPRT SUNNY     61  48  63 N3        30.11F
$$
MNZ029>031-032-039>041-046>048-054>057-064-301400-
   West Central Minnesota

CITY           SKY/WX    TMP DP  RH WIND       PRES   REMARKS
FERGUS FALLS   CLOUDY    66  59  77 SE7       30.03S
WHEATON        CLOUDY    64  63  94 SE5       30.03R
MORRIS         SUNNY     63  61  94 SE6       30.02S
ALEXANDRIA     SUNNY     66  57  72 MISG      30.05S
ELBOW LAKE     CLOUDY    66  60  79 SE9       30.03S
WADENA         MOSUNNY   63  57  82 CALM      30.04
GLENWOOD       SUNNY     64  59  82 CALM      30.05S
APPLETON       SUNNY     64  57  77 CALM      30.02S
BENSON         SUNNY     64  55  72 CALM      30.03S
ORTONVILLE     MOSUNNY   64  59  82 SE3       30.02R
MADISON        SUNNY     61  57  88 CALM      30.03R
WILLMAR        FAIR      64  61  88 CALM      30.05S
$$
MNZ033>034-036-042>043-049>051-058-059-301400-
   Central Minnesota

CITY           SKY/WX    TMP DP  RH WIND       PRES   REMARKS
ST CLOUD       SUNNY     62  59  90 CALM      30.05R
SAUK CENTRE    FAIR      62  58  88 CALM      30.06R
PAYNESVILLE    SUNNY     63  61  93 CALM      30.06R
AITKIN         MOSUNNY   61  54  77 CALM      30.05R
PINE RIVER     SUNNY     63  59  88 SE3       30.08S
BRAINERD       SUNNY     61  57  87 CALM      30.06R
STAPLES        SUNNY     61  55  82 SE5       30.05R
LONG PRAIRIE   FAIR      61  59  94 CALM      30.05S
LITTLE FALLS   SUNNY     59  55  88 CALM      30.05S
LITCHFIELD     SUNNY     66  63  88 CALM      30.04F
BUFFALO        MOSUNNY   63  58  85 CALM      30.05S
MAPLE LAKE     MOSUNNY   61  60  96 CALM      30.06R
HUTCHINSON     CLOUDY    64  62  92 CALM      30.04S
$$
MNZ037-044-045-052-053-301400-
   East Central Minnesota

CITY           SKY/WX    TMP DP  RH WIND       PRES   REMARKS
PRINCETON        N/A     59  57  94 CALM      30.05S
MORA           MOSUNNY   57  55  94 CALM      30.07S
CAMBRIDGE      CLOUDY    64  57  77 CALM      30.04R
RUSH CITY      PTSUNNY   60  58  91 CALM      30.06S
MOOSE LAKE     FOG       55  55 100 CALM      30.06R VSB 3/4
HINCKLEY       PTSUNNY   59  55  88 CALM      30.07R
CLOQUET        SUNNY     59  55  88 CALM      30.07S
MCGREGOR       SUNNY     59  55  88 CALM      30.07R
$$
MNZ071>073-080-081-089-090-097-098-301400-
   Southwest Minnesota

CITY           SKY/WX    TMP DP  RH WIND       PRES   REMARKS
MONTEVIDEO     SUNNY     64  61  88 S3        30.05R
GRANITE FALLS  SUNNY     63  60  88 CALM      30.05S
CANBY          SUNNY     65  58  77 CALM      30.04R
MARSHALL       SUNNY     63  57  81 SE3       30.04R
REDWOOD FALLS  SUNNY     61  55  81 CALM      30.03S
OLIVIA         SUNNY     63  55  77 CALM      30.03S
PIPESTONE      SUNNY     61  55  82 E3        30.05R
WINDOM         SUNNY     61  55  82 CALM      30.05R
WORTHINGTON    SUNNY     62  58  86 CALM      30.06R
JACKSON        SUNNY     61  55  82 CALM      30.05R
TRACY          SUNNY     66  59  78 SW5       30.04R
SLAYTON        SUNNY     60  55  83 CALM      30.06R
$$
MNZ065>067-074>077-082>085-091>093-301400-
   South Central Minnesota

CITY           SKY/WX    TMP DP  RH WIND       PRES   REMARKS
MANKATO        MOSUNNY   61  52  72 CALM      30.04R
NEW ULM        SUNNY     61  57  88 CALM      30.03S
ST JAMES       SUNNY     55  54  94 CALM      30.05R
FAIRMONT       MOSUNNY   63  55  77 CALM      30.03R
GLENCOE        SUNNY     62  61  96 CALM      30.03S
FARIBAULT      CLOUDY    66  63  88 CALM      30.04S
OWATONNA       MOSUNNY   66  63  88 CALM      30.04S
WASECA         CLOUDY    64  59  82 E3        30.05S
ALBERT LEA     PTSUNNY   66  63  88 CALM      30.04S
$$
MNZ078>079-086>088-094>096-301400-
   Southeast Minnesota

CITY           SKY/WX    TMP DP  RH WIND       PRES   REMARKS
ROCHESTER      CLOUDY    67  65  93 E5        30.05S
RED WING       CLOUDY    68  63  83 NE3       30.03S
STANTON        CLOUDY    66  63  88 CALM      30.03R
DODGE CENTER   SUNNY     68  64  88 E6        30.04S
WINONA         SUNNY     70  63  78 CALM      30.04S
AUSTIN         MOSUNNY   66  64  94 E7        30.03S
PRESTON        CLOUDY    64  62  93 E5        30.05S
$$
ABBREVIATIONS USED IN REMARKS
   TC - TEMPERATURES IN CELSIUS
  WCI - WIND CHILL INDEX
   HX - HEAT INDEX
  VSB - VISIBILITY
$$




USA.gov is the U.S. government's official web portal to all federal, state and local government web resources and services.